Estación de Purranque
Ultimos registro cada 15 minutos 57
| N° | Estación | Fecha / Hora | Temperatura | Humedad | Lluvia | Velocidad | Dirección | Radiación | Presion |
| 57 | Purranque | 10-05-2026 14:00 | 14,9 | 73,4 | 0 | 3,3 | 209 | 455,6 | 1010,8 |
| 56 | Purranque | 10-05-2026 13:45 | 14,8 | 72,7 | 0 | 2,7 | 215 | 471,9 | 1010,9 |
| 55 | Purranque | 10-05-2026 13:30 | 14,3 | 73,1 | 0 | 2,7 | 215 | 486,9 | 1011,1 |
| 54 | Purranque | 10-05-2026 13:15 | 13,9 | 71,9 | 0 | 2,3 | 223 | 493,1 | 1011,1 |
| 53 | Purranque | 10-05-2026 13:00 | 13,5 | 72 | 0 | 2,7 | 219 | 506,9 | 1011,3 |
| 52 | Purranque | 10-05-2026 12:45 | 13,4 | 70,9 | 0 | 3 | 215 | 511,9 | 1011,4 |
| 51 | Purranque | 10-05-2026 12:30 | 12,7 | 72,9 | 0 | 2,3 | 205 | 509,4 | 1011,6 |
| 50 | Purranque | 10-05-2026 12:15 | 12,2 | 74,1 | 0 | 2,3 | 206 | 505,6 | 1011,8 |
| 49 | Purranque | 10-05-2026 12:00 | 12,1 | 73,9 | 0 | 2,3 | 209 | 498,1 | 1012 |
| 48 | Purranque | 10-05-2026 11:45 | 11,6 | 76,5 | 0 | 1,7 | 234 | 486,9 | 1012,2 |
| 47 | Purranque | 10-05-2026 11:30 | 11,3 | 77,9 | 0 | 2 | 198 | 473,1 | 1012,3 |
| 46 | Purranque | 10-05-2026 11:15 | 10,7 | 78,9 | 0 | 2 | 184 | 456,9 | 1012,4 |
| 45 | Purranque | 10-05-2026 11:00 | 10,4 | 82 | 0 | 2 | 219 | 438,1 | 1012,5 |
| 44 | Purranque | 10-05-2026 10:45 | 9,6 | 85,5 | 0 | 2,7 | 218 | 413,1 | 1012,6 |
| 43 | Purranque | 10-05-2026 10:30 | 9,3 | 87,5 | 0 | 3 | 215 | 390,6 | 1012,5 |
| 42 | Purranque | 10-05-2026 10:15 | 8,9 | 88,5 | 0 | 2,3 | 213 | 359,4 | 1012,7 |
| 41 | Purranque | 10-05-2026 10:00 | 8,4 | 89,6 | 0 | 2 | 218 | 326,9 | 1012,8 |
| 40 | Purranque | 10-05-2026 09:45 | 7,7 | 90,2 | 0 | 1,7 | 213 | 291,9 | 1012,9 |
| 39 | Purranque | 10-05-2026 09:30 | 7 | 93,6 | 0 | 1 | 212 | 260,6 | 1012,9 |
| 38 | Purranque | 10-05-2026 09:15 | 5,8 | 98,5 | 0 | 0,7 | 175 | 228,1 | 1012,9 |
| 37 | Purranque | 10-05-2026 09:00 | 4,7 | 100 | 0 | 0,3 | 157 | 191,9 | 1012,7 |
| 36 | Purranque | 10-05-2026 08:45 | 3,2 | 100 | 0 | 0,3 | 185 | 159,4 | 1012,4 |
| 35 | Purranque | 10-05-2026 08:30 | 1,6 | 99,7 | 0 | 0 | 222 | 93,1 | 1012,2 |
| 34 | Purranque | 10-05-2026 08:15 | 1,9 | 99,2 | 0 | 0 | 222 | 28,1 | 1012,2 |
| 33 | Purranque | 10-05-2026 08:00 | 0,9 | 99 | 0 | 0 | 222 | 6,9 | 1012,1 |
| 32 | Purranque | 10-05-2026 07:45 | 1,9 | 98,8 | 0 | 0,3 | 222 | 3,1 | 1012,1 |
| 31 | Purranque | 10-05-2026 07:30 | 2,5 | 98,2 | 0 | 0 | 222 | 0,6 | 1012,1 |
| 30 | Purranque | 10-05-2026 07:15 | 3,8 | 98,4 | 0 | 0,3 | 216 | 0,6 | 1012,2 |
| 29 | Purranque | 10-05-2026 07:00 | 3,1 | 97,6 | 0 | 0 | 211 | 0,6 | 1012,5 |
| 28 | Purranque | 10-05-2026 06:45 | 3,8 | 96,8 | 0 | 0,7 | 213 | 0,6 | 1012,5 |
| 27 | Purranque | 10-05-2026 06:30 | 3,9 | 97,4 | 0 | 1 | 232 | 0,6 | 1012,5 |
| 26 | Purranque | 10-05-2026 06:15 | 3,9 | 98,2 | 0 | 0,7 | 220 | 0,6 | 1012,5 |
| 25 | Purranque | 10-05-2026 06:00 | 4 | 99 | 0 | 0,7 | 216 | 0,6 | 1012,4 |
| 24 | Purranque | 10-05-2026 05:45 | 3,7 | 98,5 | 0 | 1,3 | 212 | 0,6 | 1012,4 |
| 23 | Purranque | 10-05-2026 05:30 | 2,5 | 99,4 | 0 | 0,7 | 218 | 0,6 | 1012,2 |
| 22 | Purranque | 10-05-2026 05:15 | 3,3 | 98,8 | 0 | 1 | 213 | 0,6 | 1012,1 |
| 21 | Purranque | 10-05-2026 05:00 | 4 | 99,8 | 0 | 0,7 | 213 | 0,6 | 1012,2 |
| 20 | Purranque | 10-05-2026 04:45 | 3,5 | 99,3 | 0 | 0,7 | 206 | 0,6 | 1012,2 |
| 19 | Purranque | 10-05-2026 04:30 | 4 | 99,7 | 0 | 1 | 212 | 0,6 | 1012,3 |
| 18 | Purranque | 10-05-2026 04:15 | 3,4 | 100 | 0 | 1 | 222 | 0,6 | 1012,4 |
| 17 | Purranque | 10-05-2026 04:00 | 4,2 | 100 | 0 | 1 | 209 | 0,6 | 1012,4 |
| 16 | Purranque | 10-05-2026 03:45 | 2,8 | 100 | 0 | 1 | 218 | 0,6 | 1012,5 |
| 15 | Purranque | 10-05-2026 03:30 | 2,8 | 100 | 0 | 1 | 215 | 0,6 | 1012,4 |
| 14 | Purranque | 10-05-2026 03:15 | 3,2 | 100 | 0 | 0,7 | 209 | 0,6 | 1012,6 |
| 13 | Purranque | 10-05-2026 03:00 | 2,8 | 100 | 0 | 1 | 218 | 0,6 | 1012,7 |
| 12 | Purranque | 10-05-2026 02:45 | 3,1 | 100 | 0 | 1 | 216 | 0,6 | 1012,7 |
| 11 | Purranque | 10-05-2026 02:30 | 3,1 | 100 | 0 | 0,3 | 201 | 0,6 | 1012,8 |
| 10 | Purranque | 10-05-2026 02:15 | 2 | 100 | 0 | 0 | 166 | 0,6 | 1012,8 |
| 9 | Purranque | 10-05-2026 02:00 | 1,8 | 100 | 0 | 0,3 | 160 | 0,6 | 1012,8 |
| 8 | Purranque | 10-05-2026 01:45 | 1,6 | 100 | 0 | 0,7 | 167 | 0,6 | 1012,7 |
| 7 | Purranque | 10-05-2026 01:30 | 1,7 | 100 | 0 | 0,3 | 195 | 0,6 | 1012,8 |
| 6 | Purranque | 10-05-2026 01:15 | 0,9 | 99,7 | 0 | 0 | 225 | 0,6 | 1012,8 |
| 5 | Purranque | 10-05-2026 01:00 | 0,7 | 99,2 | 0 | 0 | 225 | 0,6 | 1012,9 |
| 4 | Purranque | 10-05-2026 00:45 | 0,9 | 98,6 | 0 | 0 | 225 | 0,6 | 1013,1 |
| 3 | Purranque | 10-05-2026 00:30 | 1,7 | 99,2 | 0 | 0 | 225 | 0,6 | 1013,1 |
| 2 | Purranque | 10-05-2026 00:15 | 2,1 | 99,1 | 0 | 0 | 218 | 0,6 | 1013,4 |
| 1 | Purranque | 10-05-2026 00:00 | 0,9 | 98,8 | 0 | 0 | 206 | 0,6 | 1013,6 |